FW5291 Weather Reports


time (UTC)temp
C
wind
direction
speed
KPH
gust
KPH
rain 1hr
cm
rain 24hr
cm
rain mn
cm
humidity
%
barometer
mb
20260510000012 16 281 1.6 0.0 0.00 0.00 0.00 82 1027.6
20260509234508 16 260 1.6 0.0 0.00 0.00 0.00 85 1027.7
20260509233005 15 302 1.6 0.0 0.00 0.00 0.00 85 1027.8
20260509231501 15 78 0.0 0.0 0.00 0.00 0.00 88 1027.8
20260509230104 13 78 1.6 0.0 0.00 0.00 0.00 89 1027.8
20260509224555 13 92 1.6 0.0 0.00 0.00 0.00 91 1027.8
20260509223051 12 179 1.6 0.0 0.00 0.00 0.00 91 1027.6
20260509221605 12 262 1.6 0.0 0.00 0.00 0.00 93 1027.4
20260509220059 12 298 1.6 0.0 0.00 0.00 0.00 94 1027.4
20260509214545 12 153 1.6 0.0 0.00 0.00 0.00 95 1027.4
20260509213042 11 131 1.6 0.0 0.00 0.00 0.00 95 1027.3
20260509211538 10 94 3.2 0.0 0.00 0.00 0.00 95 1026.9
20260509210036 10 94 1.6 0.0 0.00 0.00 0.00 94 1026.4
20260509204535 10 95 0.0 0.0 0.00 0.00 0.00 94 1026.4
20260509203041 10 95 0.0 0.0 0.00 0.00 0.00 94 1026.4
20260509201532 10 95 0.0 0.0 0.00 0.00 0.00 95 1026.3
20260509200033 10 96 0.0 0.0 0.00 0.00 0.00 94 1026.1
20260509194530 10 96 0.0 0.0 0.00 0.00 0.00 94 1026.0
20260509193028 9 96 0.0 0.0 0.00 0.00 0.00 94 1025.8
20260509191526 8 94 0.0 0.0 0.00 0.00 0.00 94 1025.7
20260509190040 8 93 0.0 0.0 0.00 0.00 0.00 94 1025.5
20260509184531 9 93 0.0 0.0 0.00 0.00 0.00 94 1025.3
20260509183028 8 93 1.6 0.0 0.00 0.00 0.00 94 1025.3
20260509181521 8 95 0.0 0.0 0.00 0.00 0.00 94 1025.0
20260509180019 8 96 0.0 0.0 0.00 0.00 0.00 93 1025.1
20260509174522 9 94 0.0 0.0 0.00 0.00 0.00 94 1025.1
20260509173016 9 94 0.0 0.0 0.00 0.00 0.00 94 1024.9
20260509171515 9 93 0.0 0.0 0.00 0.00 0.00 93 1025.0
20260509170026 9 93 0.0 0.0 0.00 0.00 0.00 93 1024.9
20260509164512 9 93 0.0 0.0 0.00 0.00 0.00 94 1024.9
20260509163012 9 94 0.0 0.0 0.00 0.00 0.00 93 1025.0
20260509161511 9 94 0.0 0.0 0.00 0.00 0.00 93 1025.1
20260509160014 10 96 0.0 0.0 0.00 0.00 0.00 93 1025.1
20260509154506 10 95 0.0 0.0 0.00 0.00 0.00 93 1025.0
20260509153006 10 95 0.0 0.0 0.00 0.00 0.00 93 1025.0
20260509151505 10 94 0.0 0.0 0.00 0.00 0.00 93 1025.1
20260509150004 10 94 0.0 0.0 0.00 0.00 0.00 93 1025.1
20260509144504 10 94 1.6 0.0 0.00 0.00 0.00 92 1025.2
20260509143100 10 94 0.0 0.0 0.00 0.00 0.00 92 1025.1
20260509141558 10 94 0.0 0.0 0.00 0.00 0.00 92 1025.2
20260509140055 10 95 0.0 0.0 0.00 0.00 0.00 92 1025.3
20260509134606 10 94 0.0 0.0 0.00 0.00 0.00 92 1025.3
20260509133055 11 95 0.0 0.0 0.00 0.00 0.00 92 1025.4
20260509131622 11 94 0.0 0.0 0.00 0.00 0.00 92 1025.4
20260509124552 11 94 0.0 0.0 0.00 0.00 0.00 91 1025.2
20260509123100 11 94 0.0 0.0 0.00 0.00 0.00 91 1025.1
20260509121551 11 94 1.6 0.0 0.00 0.00 0.00 90 1025.1
20260509120051 12 94 0.0 0.0 0.00 0.00 0.00 90 1025.0
20260509114605 12 94 0.0 0.0 0.00 0.00 0.00 90 1025.1
20260509113055 12 94 0.0 0.0 0.00 0.00 0.00 89 1025.1
20260509111549 12 94 0.0 0.0 0.00 0.00 0.00 88 1025.1
20260509104554 13 94 0.0 0.0 0.00 0.00 0.00 87 1024.9
20260509103046 13 94 0.0 0.0 0.00 0.00 0.00 86 1024.9
20260509101546 14 94 0.0 0.0 0.00 0.00 0.00 85 1024.9
20260509100045 15 94 0.0 0.0 0.00 0.00 0.00 84 1024.7
20260509094544 15 94 0.0 0.0 0.00 0.00 0.00 84 1024.7
20260509093043 15 94 0.0 0.0 0.00 0.00 0.00 83 1024.7
20260509091542 15 94 0.0 0.0 0.00 0.00 0.00 82 1024.5
20260509090048 16 94 0.0 0.0 0.00 0.00 0.00 81 1024.3
20260509084541 16 94 0.0 0.0 0.00 0.00 0.00 79 1024.0
20260509083046 17 94 0.0 0.0 0.00 0.00 0.00 77 1023.8
20260509081544 17 98 0.0 0.0 0.00 0.00 0.00 76 1023.6
20260509080040 17 99 0.0 0.0 0.00 0.00 0.00 75 1023.5
20260509074547 18 99 3.2 0.0 0.00 0.00 0.00 74 1023.3
20260509073039 18 59 0.0 0.0 0.00 0.00 0.00 71 1023.1
20260509071539 19 57 1.6 0.0 0.00 0.00 0.00 69 1022.9
20260509070039 20 57 0.0 0.0 0.00 0.00 0.00 66 1022.8
20260509064538 21 57 3.2 0.0 0.00 0.00 0.00 62 1022.7
20260509063038 22 60 1.6 0.0 0.00 0.00 0.00 57 1022.4
20260509061537 22 75 1.6 0.0 0.00 0.00 0.00 54 1022.3
20260509060038 23 118 0.0 0.0 0.00 0.00 0.00 53 1022.2
20260509054542 22 118 1.6 0.0 0.00 0.00 0.00 53 1022.1
20260509053120 23 256 3.2 0.0 0.00 0.00 0.00 53 1022.1
20260509051542 23 81 1.6 0.0 0.00 0.00 0.00 53 1022.0
20260509050043 23 113 3.2 0.0 0.00 0.00 0.00 51 1021.9
20260509044531 23 101 4.8 0.0 0.00 0.00 0.00 51 1021.9
20260509043030 23 78 3.2 0.0 0.00 0.00 0.00 51 1022.0
20260509041529 23 85 3.2 0.0 0.00 0.00 0.00 51 1022.1
20260509040027 23 355 3.2 0.0 0.00 0.00 0.00 51 1022.1
20260509034524 23 226 3.2 0.0 0.00 0.00 0.00 52 1022.0
20260509033023 23 57 3.2 0.0 0.00 0.00 0.00 52 1022.1
20260509031522 23 227 3.2 0.0 0.00 0.00 0.00 53 1022.2
20260509030030 22 184 3.2 0.0 0.00 0.00 0.00 53 1022.2
20260509024518 22 65 6.4 0.0 0.00 0.00 0.00 56 1022.5
20260509023026 22 93 1.6 0.0 0.00 0.00 0.00 54 1022.7
20260509021515 22 209 3.2 0.0 0.00 0.00 0.00 56 1023.0
20260509020013 21 185 3.2 0.0 0.00 0.00 0.00 55 1023.2
20260509014512 21 187 3.2 0.0 0.00 0.00 0.00 55 1023.4
20260509013010 21 134 3.2 0.0 0.00 0.00 0.00 56 1023.6
20260509011508 21 189 3.2 0.0 0.00 0.00 0.00 56 1023.9
20260509010012 20 180 3.2 0.0 0.00 0.00 0.00 56 1024.0
20260509004502 20 235 3.2 0.0 0.00 0.00 0.00 58 1024.2
20260509003134 19 267 3.2 0.0 0.00 0.00 0.00 60 1024.5
20260509001605 18 246 3.2 0.0 0.00 0.00 0.00 62 1024.5